Airport METAR Information

LTBA 211720Z 02006KT 330V050 9999 FEW035 SCT100 25/20 Q1017 NOSIG

VATSIM Livefeed

Card image cap

ATC Bookings

No position booked

Card image cap

Active ATC

No controllers online

Blog

Read our latest news and get to know us better.